Location: Arrakis Observatory
(44.1122°N, 95.7153°W)
Time: 13:52:34
(UTC-06:00)

Amateur Radio Satellites - All Passes

Search period start: 02 December 2016 13:22
Search period end: 03 December 2016 13:22
Location: Arrakis Observatory, 44.1122°N, 95.7153°W

Satellite Date Start Highest point End Downlink Frequencies (MHz)
Time Altitude Azimuth
DX 1 02 Dec 13:30:24 13:34:39 47° 289° (WNW) 13:38:51 434.975-435.025
Cosmos 2499 02 Dec 13:37:59 13:45:54 41° 274° (W) 13:53:22 435.465 / 435.565
ESTCUBE 1 02 Dec 13:40:05 13:41:31 11° 301° (WNW) 13:42:59 437.505/2401.250
SWISSCUBE 02 Dec 13:40:10 13:41:26 11° 88° (E) 13:42:42 437.505
BEESAT 02 Dec 13:44:42 13:45:56 11° 88° (E) 13:47:11 436.000
UKube-1 02 Dec 13:45:58 13:50:05 43° 290° (WNW) 13:54:10 .
50 SAT 02 Dec 13:49:46 13:51:37 14° 296° (WNW) 13:53:27 437.505
Gurwin Techsat 1B 02 Dec 13:51:55 13:57:08 59° 259° (W) 14:02:25 435.225
RS-15 02 Dec 13:55:28 14:05:49 29° 11° (NNE) 14:16:09 29.354- 29.394
BEESAT 3 02 Dec 13:59:47 14:03:07 24° 44° (NE) 14:06:26 437.485
AO-7 02 Dec 14:01:06 14:08:48 45° 60° (ENE) 14:16:34 29.400- 29.500
AISAT 02 Dec 14:03:40 14:05:56 14° 300° (WNW) 14:08:13 437.250
ITUPSAT 1 02 Dec 14:07:42 14:11:05 19° 92° (E) 14:14:27 437.325
TISAT 1 02 Dec 14:08:30 14:12:46 83° 286° (WNW) 14:16:59 437.305
SPROUT 02 Dec 14:08:39 14:11:22 17° 297° (WNW) 14:14:05 437.525
BEESAT 2 02 Dec 14:20:02 14:23:07 20° 42° (NE) 14:26:11 435.950
AUBIESAT-1 02 Dec 14:22:51 14:26:41 25° 99° (E) 14:30:24 437.475
PCSat 02 Dec 14:29:49 14:34:00 22° 318° (NW) 14:38:13 145.827
M-CUBED/EXP-1 PRIME 02 Dec 14:31:07 14:35:29 37° 102° (ESE) 14:39:44 437.505
Oscar 19 02 Dec 14:32:37 14:35:07 14° 271° (W) 14:37:38 437.125/150
ITAMSAT 1 02 Dec 14:48:25 14:53:38 72° 257° (WSW) 14:58:52 435.822/435.867
GONETS M04 02 Dec 15:04:22 15:08:08 14° 287° (WNW) 15:11:54
SWISSCUBE 02 Dec 15:15:03 15:19:50 84° 286° (WNW) 15:24:35 437.505
BEESAT 02 Dec 15:19:33 15:24:20 84° 286° (WNW) 15:29:06 436.000
MOZHAYETS 4 02 Dec 15:25:04 15:29:02 29° 95° (E) 15:32:57
BEESAT 3 02 Dec 15:37:09 15:40:51 38° 243° (WSW) 15:44:32 437.485
ITUPSAT 1 02 Dec 15:44:35 15:49:12 49° 289° (WNW) 15:53:46 437.325
AO-7 02 Dec 15:53:41 16:01:32 46° 260° (W) 16:09:29 29.400- 29.500
AUBIESAT-1 02 Dec 15:56:51 16:01:09 39° 296° (WNW) 16:05:21 437.475
BEESAT 2 02 Dec 15:57:16 16:01:11 51° 241° (WSW) 16:05:05 435.950
CUTE-I 02 Dec 15:58:03 15:58:48 10° 53° (NE) 15:59:33 437.470
GOMX 1 02 Dec 16:05:33 16:08:14 16° 60° (ENE) 16:11:01 467.674
M-CUBED/EXP-1 PRIME 02 Dec 16:05:46 16:09:46 28° 299° (WNW) 16:13:42 437.505
BRITE-PL 02 Dec 16:07:30 16:11:18 33° 68° (ENE) 16:15:19 437.365/2234.400
RS-15 02 Dec 16:09:44 16:21:55 56° 43° (NE) 16:33:46 29.354- 29.394
AIST 2 02 Dec 16:11:59 16:13:45 12° 33° (NNE) 16:15:32 435.215
Cubesat XI-IV 02 Dec 16:19:51 16:23:04 16° 58° (ENE) 16:26:17 437.490
KKS-1 02 Dec 16:24:39 16:29:02 50° 100° (E) 16:33:22 437.445
LilacSat-2 02 Dec 16:28:30 16:29:59 12° 63° (ENE) 16:31:26 437.200
NOAA 15 02 Dec 16:30:34 16:34:27 22° 62° (ENE) 16:38:22 137.62
DOVE 4 02 Dec 16:36:42 16:39:20 15° 59° (ENE) 16:42:02 437.250
HORYU 2 02 Dec 16:38:34 16:43:01 64° 73° (ENE) 16:47:29 437.375
STARS 02 Dec 16:42:07 16:46:13 36° 98° (E) 16:50:16 437.465
HO-68 02 Dec 16:52:47 16:54:49 11° 45° (NE) 16:56:52 435.675
CUBESAT XI-V 02 Dec 16:53:31 16:57:47 35° 96° (E) 17:02:04 437.345
SWISSCUBE 02 Dec 16:55:28 16:56:50 11° 303° (WNW) 16:58:13 437.505
BEESAT 02 Dec 16:59:55 17:01:20 11° 303° (WNW) 17:02:46 436.000
MOZHAYETS 4 02 Dec 17:02:10 17:06:09 30° 292° (WNW) 17:10:07
O/OREOS (USA 219) 02 Dec 17:05:01 17:09:34 73° 111° (ESE) 17:14:07 437.305
Cosmos 2491 02 Dec 17:07:43 17:14:25 24° 62° (ENE) 17:21:03 435.465 / 435.565
NOAA 18 02 Dec 17:08:32 17:13:14 29° 63° (ENE) 17:17:58 137.9125
CUTE-I 02 Dec 17:32:31 17:37:50 65° 72° (ENE) 17:43:09 437.470
ISS 02 Dec 17:33:41 17:36:29 26° 137° (SE) 17:39:18 145.825
GOMX 1 02 Dec 17:41:17 17:45:42 65° 259° (W) 17:50:29 467.674
YUBILEINY 02 Dec 17:44:15 17:47:15 12° 71° (ENE) 17:50:15 435.215
BRITE-PL 02 Dec 17:46:30 17:49:54 23° 267° (W) 17:53:27 437.365/2234.400
AIST 2 02 Dec 17:48:50 17:53:03 65° 53° (NE) 17:57:16 435.215
Cubesat XI-IV 02 Dec 17:57:05 18:02:28 80° 256° (WSW) 18:07:53 437.490
LilacSat-2 02 Dec 17:59:56 18:03:46 61° 259° (W) 18:07:36 437.200
KKS-1 02 Dec 18:02:08 18:05:13 19° 297° (WNW) 18:08:18 437.445
CUTE 1.7 + AOD 2 02 Dec 18:03:53 18:06:09 14° 63° (ENE) 18:08:26 437.475
NOAA 15 02 Dec 18:08:42 18:13:51 56° 260° (W) 18:19:00 137.62
DOVE 4 02 Dec 18:11:37 18:16:17 76° 258° (WSW) 18:21:19 437.250
HORYU 2 02 Dec 18:17:46 18:19:59 13° 270° (W) 18:22:12 437.375
STARS 02 Dec 18:18:50 18:22:23 24° 295° (WNW) 18:25:54 437.465
CANX-2 02 Dec 18:19:45 18:23:08 24° 67° (ENE) 18:26:30 2200.000
CINEMA 3 02 Dec 18:21:55 18:26:28 39° 69° (ENE) 18:31:07 145.822/145.860
RS-15 02 Dec 18:22:44 18:34:32 55° 248° (WSW) 18:45:57 29.354- 29.394
CUBESAT XI-V 02 Dec 18:31:11 18:35:01 26° 294° (WNW) 18:38:52 437.345
HO-68 02 Dec 18:34:04 18:40:54 51° 66° (ENE) 18:47:48 435.675
AAUSAT CUBESAT 2 02 Dec 18:46:39 18:48:54 15° 63° (ENE) 18:51:10 437.432
O/OREOS (USA 219) 02 Dec 18:46:48 18:49:31 15° 310° (NW) 18:52:13 437.305
NOAA 18 02 Dec 18:48:27 18:53:41 43° 261° (W) 18:58:59 137.9125
SEEDS 02 Dec 18:53:08 18:56:49 31° 69° (ENE) 19:00:30 437.485
STRAND 1 02 Dec 18:55:14 18:59:21 24° 94° (E) 19:03:25 437.568
Cosmos 2491 02 Dec 19:03:36 19:12:21 82° 264° (W) 19:21:03 435.465 / 435.565
CUBEBUG 2 02 Dec 19:06:57 19:11:05 30° 68° (ENE) 19:15:14 437.445
ISS 02 Dec 19:09:38 19:12:51 49° 335° (NNW) 19:16:05 145.825
COMPASS 1 02 Dec 19:11:08 19:14:49 32° 70° (ENE) 19:18:31 437.405
ZACube-1 02 Dec 19:13:27 19:16:02 15° 62° (ENE) 19:18:36 437.345
CUTE-I 02 Dec 19:14:46 19:18:19 18° 269° (W) 19:21:53 437.470
Cosmos 2504 02 Dec 19:19:53 19:26:28 27° 80° (E) 19:33:21 435.465 / 435.565
FUNcube-1 02 Dec 19:23:03 19:26:00 17° 63° (ENE) 19:28:55 145.935
AIST 2 02 Dec 19:28:49 19:31:01 14° 251° (WSW) 19:33:13 435.215
YUBILEINY 02 Dec 19:33:38 19:42:10 66° 93° (E) 19:50:48 435.215
CUTE 1.7 + AOD 2 02 Dec 19:37:22 19:41:32 58° 260° (W) 19:45:42 437.475
Cubesat XI-IV 02 Dec 19:42:33 19:43:22 10° 274° (W) 19:44:10 437.490
PCSat 02 Dec 19:48:42 19:52:14 17° 37° (NE) 19:55:45 145.827
CANX-2 02 Dec 19:55:01 19:58:49 32° 263° (W) 20:02:39 2200.000
UWE-3 02 Dec 19:57:11 20:01:48 62° 74° (ENE) 20:06:24 435.000/436.395/437.385
Oscar 11 02 Dec 19:57:41 20:01:34 33° 69° (ENE) 20:05:27 145.826/435.025
CINEMA 3 02 Dec 19:59:37 20:03:41 26° 267° (W) 20:07:52 145.822/145.860
DELFI C3 02 Dec 20:18:35 20:21:26 20° 66° (ENE) 20:24:18 145.870
AAUSAT CUBESAT 2 02 Dec 20:19:55 20:23:56 54° 260° (W) 20:27:59 437.432
HO-68 02 Dec 20:22:30 20:28:50 34° 264° (W) 20:35:14 435.675
SEEDS 02 Dec 20:29:10 20:32:32 24° 266° (W) 20:35:55 437.485
SO-50 02 Dec 20:31:40 20:35:31 24° 113° (ESE) 20:39:18 436.795
STRAND 1 02 Dec 20:33:52 20:38:42 44° 291° (WNW) 20:43:31 437.568
AIST 1 02 Dec 20:41:02 20:45:19 83° 278° (W) 20:49:41
RS-15 02 Dec 20:42:25 20:43:51 10° 270° (W) 20:45:16 29.354- 29.394
CUBEBUG 2 02 Dec 20:43:23 20:47:37 32° 265° (W) 20:51:53 437.445
COMPASS 1 02 Dec 20:47:11 20:50:25 22° 266° (W) 20:53:40 437.405
ISS 02 Dec 20:47:12 20:49:53 22° 355° (N) 20:52:34 145.825
ZACube-1 02 Dec 20:47:15 20:51:48 65° 259° (WSW) 20:56:20 437.345
CUSAT 1 02 Dec 20:51:01 20:54:14 57° 78° (ENE) 20:58:22 437.405
FUNcube-1 02 Dec 20:57:20 21:01:49 55° 260° (W) 21:06:16 145.935
DANDE 02 Dec 21:01:09 21:02:03 11° 72° (ENE) 21:03:00 436.750
Cosmos 2491 02 Dec 21:02:46 21:07:44 17° 285° (WNW) 21:12:41 435.465 / 435.565
Cosmos 2504 02 Dec 21:10:47 21:19:01 70° 281° (WNW) 21:27:49 435.465 / 435.565
HUMSAT D 02 Dec 21:13:47 21:17:47 43° 72° (ENE) 21:21:47 437.325/437.525
TIGRISAT 02 Dec 21:25:14 21:26:42 11° 88° (E) 21:28:11 435.000
ANTELSAT 02 Dec 21:25:21 21:27:12 12° 89° (E) 21:29:00 437.575/2403.000
ESTCUBE 1 02 Dec 21:28:31 21:29:53 11° 59° (ENE) 21:31:16 437.505/2401.250
PRISM 02 Dec 21:29:21 21:33:28 60° 102° (ESE) 21:37:34 437.425
PCSat 02 Dec 21:31:04 21:36:32 79° 59° (ENE) 21:41:56 145.827
YUBILEINY 02 Dec 21:32:16 21:39:38 30° 294° (WNW) 21:47:06 435.215
Oscar 11 02 Dec 21:34:17 21:37:45 23° 266° (W) 21:41:15 145.826/435.025
UWE-3 02 Dec 21:35:58 21:38:38 15° 270° (W) 21:41:18 435.000/436.395/437.385
DELFI C3 02 Dec 21:52:27 21:56:02 34° 263° (W) 21:59:39 145.870
SO-50 02 Dec 22:11:08 22:15:44 47° 311° (NW) 22:20:17 436.795
ISS 02 Dec 22:24:11 22:27:06 28° 15° (NNE) 22:30:02 145.825
CUBEBUG 1 02 Dec 22:24:53 22:28:25 25° 66° (ENE) 22:31:59 437.445
VELOX 1 02 Dec 22:26:27 22:29:30 19° 63° (ENE) 22:32:35 145.980
UNISAT 6 02 Dec 22:28:16 22:32:41 58° 101° (E) 22:36:57 437.425
DANDE 02 Dec 22:42:41 22:44:43 19° 264° (W) 22:46:56 436.750
HUMSAT D 02 Dec 22:50:46 22:53:35 17° 268° (W) 22:56:26 437.325/437.525
DX 1 02 Dec 22:52:19 22:55:23 19° 63° (ENE) 22:58:28 434.975-435.025
50 SAT 02 Dec 22:52:22 22:55:08 22° 68° (ENE) 22:57:55 437.505
POPSAT HIP 1 02 Dec 22:58:20 23:00:25 13° 90° (E) 23:02:30 437.405
TIGRISAT 02 Dec 22:59:30 23:03:57 71° 286° (WNW) 23:08:15 435.000
ANTELSAT 02 Dec 22:59:57 23:04:24 66° 286° (WNW) 23:08:42 437.575/2403.000
ESTCUBE 1 02 Dec 23:01:31 23:06:00 87° 259° (W) 23:10:30 437.505/2401.250
PRISM 02 Dec 23:06:08 23:08:17 14° 298° (WNW) 23:10:26 437.425
UKube-1 02 Dec 23:06:47 23:09:56 20° 64° (ENE) 23:13:06 .
Cosmos 2504 02 Dec 23:09:28 23:14:19 16° 305° (NW) 23:19:20 435.465 / 435.565
PCSat 02 Dec 23:16:07 23:19:13 16° 256° (WSW) 23:22:19 145.827
AISAT 02 Dec 23:23:57 23:28:20 74° 74° (ENE) 23:32:47 437.250
SPROUT 02 Dec 23:26:10 23:30:17 47° 72° (ENE) 23:34:26 437.525
JAS-2 02 Dec 23:37:02 23:42:06 50° 100° (E) 23:47:14 435.910
NANOSAT C BR1 02 Dec 23:54:06 23:58:15 51° 100° (E) 00:02:22 145.865
SO-50 02 Dec 23:55:45 23:57:21 11° 332° (NNW) 23:58:56 436.795
BUGSAT 1 02 Dec 23:55:51 23:58:54 19° 93° (E) 00:01:53 437.445
QB50P2 02 Dec 23:56:14 00:00:28 62° 101° (E) 00:04:39 145.880/145.840
POLYITAN 1 02 Dec 23:56:53 00:01:06 59° 101° (E) 00:05:16 437.675
ISS 03 Dec 00:00:34 00:03:52 75° 216° (SW) 00:07:10 145.825
CUBEBUG 1 03 Dec 00:00:36 00:04:33 33° 264° (W) 00:08:32 437.445
VELOX 1 03 Dec 00:01:22 00:05:37 47° 260° (W) 00:09:54 145.980
UNISAT 6 03 Dec 00:06:15 00:08:54 16° 298° (WNW) 00:11:31 437.425
QB50P1 03 Dec 00:11:08 00:15:26 85° 104° (ESE) 00:19:39 145.935-145.965
GONETS M04 03 Dec 00:12:11 00:19:16 29° 82° (E) 00:26:21
DUCHIFAT 1 03 Dec 00:18:14 00:22:30 87° 108° (ESE) 00:26:41 145.980
Cosmos 2499 03 Dec 00:22:17 00:29:48 37° 84° (E) 00:37:37 435.465 / 435.565
50 SAT 03 Dec 00:25:30 00:28:22 23° 265° (W) 00:31:14 437.505
DX 1 03 Dec 00:27:05 00:31:15 45° 261° (W) 00:35:27 434.975-435.025
POPSAT HIP 1 03 Dec 00:32:23 00:36:35 58° 287° (WNW) 00:40:43 437.405
UKube-1 03 Dec 00:41:37 00:45:41 41° 261° (W) 00:49:48 .
SWISSCUBE 03 Dec 00:47:09 00:50:13 17° 61° (ENE) 00:53:17 437.505
BEESAT 03 Dec 00:51:37 00:54:40 17° 61° (ENE) 00:57:43 436.000
Oscar 19 03 Dec 01:00:39 01:04:50 24° 94° (E) 01:09:00 437.125/150
TISAT 1 03 Dec 01:01:00 01:05:15 87° 71° (ENE) 01:09:32 437.305
SPROUT 03 Dec 01:03:40 01:06:27 17° 268° (W) 01:09:17 437.525
AISAT 03 Dec 01:03:57 01:05:19 11° 271° (W) 01:06:42 437.250
AUBIESAT-1 03 Dec 01:09:28 01:13:12 35° 63° (ENE) 01:17:11 437.475
ITUPSAT 1 03 Dec 01:15:38 01:19:39 27° 65° (ENE) 01:23:40 437.325
M-CUBED/EXP-1 PRIME 03 Dec 01:18:18 01:22:12 53° 66° (ENE) 01:26:27 437.505
JAS-2 03 Dec 01:23:02 01:26:54 22° 298° (WNW) 01:30:48 435.910
BUGSAT 1 03 Dec 01:30:28 01:34:24 39° 290° (WNW) 01:38:18 437.445
NANOSAT C BR1 03 Dec 01:30:55 01:33:35 16° 297° (WNW) 01:36:13 145.865
QB50P2 03 Dec 01:33:33 01:35:45 14° 298° (WNW) 01:37:57 145.880/145.840
POLYITAN 1 03 Dec 01:34:06 01:36:24 15° 298° (WNW) 01:38:43 437.675
O/OREOS (USA 219) 03 Dec 01:35:00 01:38:27 21° 54° (NE) 01:41:54 437.305
ISS 03 Dec 01:39:21 01:39:50 10° 230° (SW) 01:40:19 145.825
QB50P1 03 Dec 01:49:36 01:50:30 11° 301° (WNW) 01:51:26 145.935-145.965
DUCHIFAT 1 03 Dec 01:56:53 01:57:28 10° 301° (WNW) 01:58:04 145.980
Gurwin Techsat 1B 03 Dec 02:06:30 02:11:41 49° 100° (E) 02:16:49 435.225
GONETS M04 03 Dec 02:06:46 02:15:25 65° 282° (WNW) 02:24:05
PHONESAT 2.4 03 Dec 02:12:24 02:13:58 14° 157° (SSE) 02:15:33 2401.200-2431.200
Cosmos 2499 03 Dec 02:14:17 02:22:35 54° 286° (WNW) 02:31:16 435.465 / 435.565
AO-85 03 Dec 02:15:07 02:18:50 21° 113° (ESE) 02:22:21 145.980
SWISSCUBE 03 Dec 02:22:48 02:27:31 62° 258° (WSW) 02:32:16 437.505
BEESAT 03 Dec 02:27:14 02:31:58 62° 258° (WSW) 02:36:43 436.000
MOZHAYETS 4 03 Dec 02:28:12 02:32:18 33° 68° (ENE) 02:36:24
Oscar 19 03 Dec 02:39:25 02:44:21 45° 290° (WNW) 02:49:16 437.125/150
AUBIESAT-1 03 Dec 02:44:27 02:47:42 23° 262° (W) 02:51:08 437.475
ITUPSAT 1 03 Dec 02:52:56 02:57:20 36° 263° (W) 03:01:45 437.325
M-CUBED/EXP-1 PRIME 03 Dec 02:54:44 02:57:05 15° 266° (W) 02:59:32 437.505
ITAMSAT 1 03 Dec 02:59:57 03:04:43 35° 97° (E) 03:09:25 435.822/435.867
O/OREOS (USA 219) 03 Dec 03:13:49 03:18:06 45° 252° (WSW) 03:22:20 437.305
KKS-1 03 Dec 03:23:48 03:28:09 55° 72° (ENE) 03:32:33 437.445
STARS 03 Dec 03:39:53 03:43:59 38° 69° (ENE) 03:48:07 437.465
PHONESAT 2.4 03 Dec 03:46:22 03:48:50 33° 173° (S) 03:51:17 2401.200-2431.200
Gurwin Techsat 1B 03 Dec 03:47:05 03:51:18 24° 297° (WNW) 03:55:30 435.225
AO-7 03 Dec 03:52:49 04:01:04 57° 103° (ESE) 04:09:15 29.400- 29.500
AO-85 03 Dec 03:54:13 03:59:00 53° 308° (NW) 04:03:26 145.980
CUBESAT XI-V 03 Dec 03:58:07 04:02:24 40° 70° (ENE) 04:06:42 437.345
MOZHAYETS 4 03 Dec 04:05:35 04:09:28 27° 265° (W) 04:13:22
GONETS M04 03 Dec 04:10:02 04:14:16 14° 306° (NW) 04:18:32
BRITE-PL 03 Dec 04:11:11 04:13:27 13° 88° (E) 04:15:45 437.365/2234.400
Cosmos 2499 03 Dec 04:14:58 04:18:08 12° 310° (NW) 04:21:21 435.465 / 435.565
HORYU 2 03 Dec 04:30:52 04:31:39 10° 88° (E) 04:32:25 437.375
ITAMSAT 1 03 Dec 04:39:33 04:44:06 31° 294° (WNW) 04:48:36 435.822/435.867
SO-50 03 Dec 05:00:52 05:05:03 34° 45° (NE) 05:09:07 436.795
KKS-1 03 Dec 05:02:23 05:05:04 16° 269° (W) 05:07:45 437.445
Cosmos 2504 03 Dec 05:11:43 05:14:28 12° 50° (NE) 05:17:11 435.465 / 435.565
STARS 03 Dec 05:17:03 05:20:28 22° 266° (W) 05:23:54 437.465
PHONESAT 2.4 03 Dec 05:21:25 05:23:50 30° 189° (S) 05:26:14 2401.200-2431.200
BEESAT 3 03 Dec 05:28:55 05:31:58 22° 113° (ESE) 05:35:04 437.485
LilacSat-2 03 Dec 05:33:23 05:35:05 13° 90° (E) 05:36:45 437.200
CUBESAT XI-V 03 Dec 05:36:23 05:39:55 22° 267° (W) 05:43:29 437.345
AO-85 03 Dec 05:38:47 05:40:21 12° 328° (NNW) 05:41:55 145.980
GOMX 1 03 Dec 05:40:54 05:45:56 38° 96° (E) 05:51:00 467.674
YUBILEINY 03 Dec 05:42:02 05:49:58 35° 69° (ENE) 05:57:50 435.215
AO-7 03 Dec 05:46:03 05:53:29 37° 303° (WNW) 06:00:55 29.400- 29.500
BRITE-PL 03 Dec 05:47:10 05:52:30 89° 104° (ESE) 05:58:07 437.365/2234.400
CUTE-I 03 Dec 05:48:45 05:52:54 23° 93° (E) 05:57:01 437.470
BEESAT 2 03 Dec 05:51:05 05:53:46 18° 112° (ESE) 05:56:29 435.950
HORYU 2 03 Dec 06:04:18 06:08:45 79° 286° (WNW) 06:13:10 437.375
DOVE 4 03 Dec 06:09:05 06:13:45 30° 94° (E) 06:18:19 437.250
Cosmos 2491 03 Dec 06:12:14 06:18:50 25° 80° (E) 06:25:26 435.465 / 435.565
STRAND 1 03 Dec 06:12:16 06:17:03 40° 68° (ENE) 06:21:51 437.568
Cubesat XI-IV 03 Dec 06:13:03 06:17:59 36° 97° (E) 06:22:51 437.490
NOAA 15 03 Dec 06:22:07 06:27:14 49° 100° (E) 06:32:20 137.62
RS-15 03 Dec 06:37:58 06:46:40 25° 99° (E) 06:55:36 29.354- 29.394
SO-50 03 Dec 06:41:27 06:45:28 32° 244° (WSW) 06:49:24 436.795
AIST 1 03 Dec 06:46:42 06:50:31 28° 73° (ENE) 06:54:18
PHONESAT 2.4 03 Dec 06:57:36 06:58:38 12° 205° (SSW) 06:59:39 2401.200-2431.200
Cosmos 2504 03 Dec 07:01:44 07:10:23 52° 74° (ENE) 07:18:36 435.465 / 435.565
BEESAT 3 03 Dec 07:05:45 07:09:24 36° 312° (NW) 07:13:06 437.485
LilacSat-2 03 Dec 07:05:59 07:09:39 48° 287° (WNW) 07:13:17 437.200
NOAA 18 03 Dec 07:08:32 07:14:06 71° 103° (ESE) 07:19:36 137.9125
GOMX 1 03 Dec 07:19:06 07:23:53 33° 293° (WNW) 07:28:43 467.674
CUTE 1.7 + AOD 2 03 Dec 07:21:16 07:24:28 21° 93° (E) 07:27:40 437.475
BEESAT 2 03 Dec 07:27:25 07:31:14 46° 310° (NW) 07:35:05 435.950
BRITE-PL 03 Dec 07:27:28 07:30:19 15° 300° (WNW) 07:33:14 437.365/2234.400
CUTE-I 03 Dec 07:28:04 07:33:14 50° 290° (WNW) 07:38:20 437.470
CANX-2 03 Dec 07:38:03 07:41:57 36° 97° (E) 07:45:51 2200.000
YUBILEINY 03 Dec 07:38:37 07:47:08 56° 270° (W) 07:55:40 435.215
DOVE 4 03 Dec 07:46:34 07:51:27 38° 291° (WNW) 07:56:15 437.250
HO-68 03 Dec 07:47:22 07:54:17 46° 99° (E) 08:01:07 435.675
UWE-3 03 Dec 07:48:23 07:49:12 10° 87° (E) 07:50:01 435.000/436.395/437.385
CINEMA 3 03 Dec 07:51:56 07:56:51 76° 102° (ESE) 08:01:33 145.822/145.860
STRAND 1 03 Dec 07:52:02 07:56:20 27° 266° (W) 08:00:40 437.568
Cubesat XI-IV 03 Dec 07:53:16 07:57:58 32° 295° (WNW) 08:02:38 437.490
AAUSAT CUBESAT 2 03 Dec 08:01:05 08:04:10 20° 93° (E) 08:07:14 437.432
NOAA 15 03 Dec 08:02:31 08:06:42 24° 297° (WNW) 08:10:53 137.62
Cosmos 2491 03 Dec 08:05:58 08:14:45 75° 280° (W) 08:23:34 435.465 / 435.565
SEEDS 03 Dec 08:10:23 08:14:26 48° 99° (E) 08:18:29 437.485
PRISM 03 Dec 08:19:52 08:23:48 51° 72° (ENE) 08:27:47 437.425
AIST 1 03 Dec 08:24:19 08:28:02 27° 271° (W) 08:31:44
TIGRISAT 03 Dec 08:24:45 08:27:22 15° 61° (ENE) 08:29:58 435.000
ANTELSAT 03 Dec 08:25:08 08:27:55 16° 62° (ENE) 08:30:41 437.575/2403.000
COMPASS 1 03 Dec 08:27:11 08:31:14 50° 99° (E) 08:35:16 437.405
CUBEBUG 2 03 Dec 08:32:24 08:36:46 50° 99° (E) 08:40:57 437.445
ZACube-1 03 Dec 08:34:57 08:38:13 21° 93° (E) 08:41:24 437.345
FUNcube-1 03 Dec 08:44:25 08:47:55 24° 94° (E) 08:51:19 145.935
RS-15 03 Dec 08:45:33 08:57:22 88° 123° (ESE) 09:09:46 29.354- 29.394
NOAA 18 03 Dec 08:50:23 08:54:09 19° 302° (WNW) 08:57:55 137.9125
Cosmos 2504 03 Dec 08:55:35 09:03:28 38° 275° (W) 09:11:02 435.465 / 435.565
CUTE 1.7 + AOD 2 03 Dec 08:56:33 09:00:25 36° 290° (WNW) 09:04:16 437.475
CANX-2 03 Dec 09:14:24 09:17:35 21° 294° (WNW) 09:20:47 2200.000
Oscar 11 03 Dec 09:18:49 09:23:03 55° 100° (E) 09:27:17 145.826/435.025
UWE-3 03 Dec 09:21:51 09:26:14 74° 286° (WNW) 09:30:28 435.000/436.395/437.385
AIST 2 03 Dec 09:25:27 09:29:33 85° 122° (ESE) 09:33:44 435.215
UNISAT 6 03 Dec 09:27:48 09:32:26 62° 73° (ENE) 09:37:03 437.425
DELFI C3 03 Dec 09:28:08 09:31:25 25° 95° (E) 09:34:43 145.870
CINEMA 3 03 Dec 09:30:40 09:33:18 15° 300° (WNW) 09:35:53 145.822/145.860
HO-68 03 Dec 09:35:20 09:41:52 39° 298° (WNW) 09:48:22 435.675
AAUSAT CUBESAT 2 03 Dec 09:35:57 09:39:45 36° 289° (WNW) 09:43:32 437.432
SEEDS 03 Dec 09:47:07 09:49:46 17° 296° (WNW) 09:52:24 437.485
JAS-2 03 Dec 09:50:54 09:56:22 30° 65° (ENE) 10:01:19 435.910
POPSAT HIP 1 03 Dec 09:52:35 09:54:44 14° 61° (ENE) 09:56:52 437.405
CUSAT 1 03 Dec 09:56:11 09:59:32 51° 99° (E) 10:02:19 437.405
PRISM 03 Dec 09:57:16 09:59:24 14° 269° (W) 10:01:35 437.425
TIGRISAT 03 Dec 09:58:48 10:03:29 70° 258° (WSW) 10:08:10 435.000
ANTELSAT 03 Dec 09:59:25 10:04:06 66° 258° (WSW) 10:08:46 437.575/2403.000
COMPASS 1 03 Dec 10:03:52 10:06:23 16° 296° (WNW) 10:08:56 437.405
Cosmos 2491 03 Dec 10:07:58 10:13:18 17° 303° (WNW) 10:18:39 435.465 / 435.565
DANDE 03 Dec 10:09:39 10:13:36 24° 96° (E) 10:16:48 436.750
CUBEBUG 2 03 Dec 10:10:01 10:12:58 18° 297° (WNW) 10:15:51 437.445
ZACube-1 03 Dec 10:10:41 10:14:37 36° 290° (WNW) 10:18:27 437.345
Cosmos 2499 03 Dec 10:12:47 10:17:26 15° 54° (NE) 10:21:56 435.465 / 435.565
GONETS M04 03 Dec 10:20:11 10:25:01 16° 55° (NE) 10:29:50
FUNcube-1 03 Dec 10:20:25 10:24:11 31° 291° (WNW) 10:27:51 145.935
HUMSAT D 03 Dec 10:30:49 10:34:53 67° 101° (E) 10:38:56 437.325/437.525
AO-85 03 Dec 10:44:34 10:47:58 25° 43° (NE) 10:51:14 145.980
BUGSAT 1 03 Dec 10:47:12 10:50:01 18° 64° (ENE) 10:52:52 437.445
NANOSAT C BR1 03 Dec 10:47:16 10:51:20 45° 71° (ENE) 10:55:26 145.865
QB50P2 03 Dec 10:49:49 10:54:01 55° 73° (ENE) 10:58:14 145.880/145.840
POLYITAN 1 03 Dec 10:50:28 10:54:39 53° 73° (ENE) 10:58:51 437.675
ESTCUBE 1 03 Dec 10:53:24 10:56:27 18° 92° (E) 10:59:30 437.505/2401.250
Oscar 11 03 Dec 10:56:12 10:58:45 16° 297° (WNW) 11:01:17 145.826/435.025
RS-15 03 Dec 11:00:32 11:11:33 39° 330° (NNW) 11:22:55 29.354- 29.394
DELFI C3 03 Dec 11:02:50 11:06:12 27° 291° (WNW) 11:09:34 145.870
QB50P1 03 Dec 11:04:28 11:08:44 75° 74° (ENE) 11:13:02 145.935-145.965
AIST 2 03 Dec 11:06:05 11:08:37 15° 323° (NW) 11:11:09 435.215
UNISAT 6 03 Dec 11:06:48 11:09:31 15° 270° (W) 11:12:14 437.425
DUCHIFAT 1 03 Dec 11:10:57 11:15:12 76° 74° (ENE) 11:19:28 145.980
AISAT 03 Dec 11:14:21 11:16:18 13° 89° (E) 11:18:16 437.250
POPSAT HIP 1 03 Dec 11:25:43 11:29:58 66° 258° (WSW) 11:34:16 437.405
JAS-2 03 Dec 11:34:50 11:41:15 49° 260° (W) 11:46:59 435.910
CUBEBUG 1 03 Dec 11:47:07 11:51:18 38° 98° (E) 11:55:27 437.445
50 SAT 03 Dec 11:49:54 11:52:37 20° 95° (E) 11:55:20 437.505
VELOX 1 03 Dec 11:49:57 11:53:49 28° 96° (E) 11:57:40 145.980
DANDE 03 Dec 11:52:03 11:56:13 28° 283° (WNW) 11:59:32 436.750
Gurwin Techsat 1B 03 Dec 11:52:31 11:55:09 14° 57° (ENE) 11:57:49 435.225
Cosmos 2499 03 Dec 12:03:51 12:12:35 66° 78° (ENE) 12:20:41 435.465 / 435.565
HUMSAT D 03 Dec 12:08:21 12:09:58 12° 299° (WNW) 12:11:34 437.325/437.525
DX 1 03 Dec 12:13:50 12:17:34 27° 96° (E) 12:21:17 434.975-435.025
PCSat 03 Dec 12:14:00 12:19:14 53° 115° (ESE) 12:24:31 145.827
GONETS M04 03 Dec 12:14:59 12:23:42 70° 79° (E) 12:32:24
Oscar 19 03 Dec 12:18:46 12:23:31 40° 68° (ENE) 12:28:19 437.125/150
BUGSAT 1 03 Dec 12:20:57 12:25:01 47° 261° (W) 12:29:09 437.445
NANOSAT C BR1 03 Dec 12:24:27 12:27:16 17° 268° (W) 12:30:07 145.865
AO-85 03 Dec 12:24:49 12:28:26 34° 243° (WSW) 12:31:58 145.980
UKube-1 03 Dec 12:27:09 12:30:53 27° 96° (E) 12:34:35 .
QB50P2 03 Dec 12:27:50 12:30:09 14° 270° (W) 12:32:29 145.880/145.840
POLYITAN 1 03 Dec 12:28:17 12:30:45 15° 269° (W) 12:33:14 437.675
ESTCUBE 1 03 Dec 12:29:10 12:33:31 48° 289° (WNW) 12:37:51 437.505/2401.250
QB50P1 03 Dec 12:44:15 12:45:01 10° 272° (W) 12:45:47 145.935-145.965
TISAT 1 03 Dec 12:45:22 12:47:00 12° 89° (E) 12:48:37 437.305
SPROUT 03 Dec 12:46:00 12:50:19 75° 102° (ESE) 12:54:36 437.525
AISAT 03 Dec 12:48:46 12:53:14 68° 286° (WNW) 12:57:40 437.250
DUCHIFAT 1 03 Dec 12:50:52 12:51:23 10° 272° (W) 12:51:55 145.980
AO-7 03 Dec 13:03:51 13:09:48 22° 49° (NE) 13:15:46 29.400- 29.500
